Météo par heure à Alingsas

Ce jour, 13 Mai, Jeudi

Heure Température Précipitation Vent Pression Humidité
00:00 +11°C° 0 mm 1 m/s 748 mmHg 93%
01:00 +11°C° 0 mm 1 m/s 748 mmHg 93%
02:00 +11°C° 0 mm 1 m/s 748 mmHg 93%
03:00 +10°C° 0 mm 0 m/s 748 mmHg 93%
04:00 +10°C° 0 mm 0 m/s 747 mmHg 93%
05:00 +12°C° 0 mm 1 m/s 747 mmHg 90%
06:00 +12°C° 0 mm 1 m/s 747 mmHg 87%
07:00 +13°C° 0 mm 1 m/s 747 mmHg 85%
08:00 +14°C° 0 mm 1 m/s 747 mmHg 84%
09:00 +15°C° 0 mm 1 m/s 747 mmHg 82%
10:00 +15°C° 0 mm 2 m/s 747 mmHg 81%
11:00 +17°C° 0.1 mm 2 m/s 746 mmHg 77%
12:00 +18°C° 0.1 mm 2 m/s 746 mmHg 73%
13:00 +20°C° 0.1 mm 2 m/s 746 mmHg 69%
14:00 +20°C° 0.6 mm 2 m/s 745 mmHg 72%
15:00 +20°C° 0.6 mm 2 m/s 745 mmHg 75%
16:00 +20°C° 0.6 mm 2 m/s 745 mmHg 78%
17:00 +19°C° 0.5 mm 2 m/s 745 mmHg 80%
18:00 +18°C° 0.5 mm 2 m/s 745 mmHg 83%
19:00 +17°C° 0.5 mm 2 m/s 745 mmHg 86%
20:00 +16°C° 0 mm 2 m/s 745 mmHg 87%
21:00 +14°C° 0 mm 2 m/s 745 mmHg 88%
22:00 +12°C° 0 mm 2 m/s 745 mmHg 88%
23:00 +12°C° 0 mm 2 m/s 745 mmHg 89%

Demain, 14 Mai, Vendredi

Heure Température Précipitation Vent Pression Humidité
00:00 +10°C° 0 mm 2 m/s 746 mmHg 90%
01:00 +9°C° 0 mm 2 m/s 746 mmHg 91%
02:00 +10°C° 0 mm 1 m/s 746 mmHg 91%
03:00 +10°C° 0 mm 1 m/s 745 mmHg 91%
04:00 +10°C° 0 mm 1 m/s 745 mmHg 91%
05:00 +11°C° 0 mm 1 m/s 746 mmHg 89%
06:00 +11°C° 0 mm 1 m/s 746 mmHg 88%
07:00 +12°C° 0 mm 1 m/s 746 mmHg 86%
08:00 +14°C° 0.1 mm 1 m/s 746 mmHg 80%
09:00 +15°C° 0.1 mm 2 m/s 746 mmHg 74%
10:00 +17°C° 0.1 mm 2 m/s 746 mmHg 68%
11:00 +17°C° 0.3 mm 2 m/s 746 mmHg 64%
12:00 +19°C° 0.3 mm 1 m/s 746 mmHg 61%
13:00 +19°C° 0.3 mm 1 m/s 746 mmHg 58%
14:00 +19°C° 0.3 mm 1 m/s 745 mmHg 63%
15:00 +17°C° 0.3 mm 2 m/s 745 mmHg 67%
16:00 +16°C° 0.3 mm 2 m/s 745 mmHg 72%
17:00 +15°C° 0.2 mm 2 m/s 745 mmHg 76%
18:00 +15°C° 0.2 mm 1 m/s 745 mmHg 79%
19:00 +14°C° 0.2 mm 1 m/s 745 mmHg 82%
20:00 +13°C° 0 mm 1 m/s 745 mmHg 86%
21:00 +12°C° 0 mm 1 m/s 745 mmHg 89%
22:00 +11°C° 0 mm 1 m/s 745 mmHg 93%
23:00 +10°C° 0 mm 1 m/s 745 mmHg 93%

Après-demain, 15 Mai, Samedi

Heure Température Précipitation Vent Pression Humidité
00:00 +10°C° 0 mm 1 m/s 745 mmHg 93%
01:00 +10°C° 0 mm 1 m/s 745 mmHg 94%
02:00 +10°C° 0 mm 1 m/s 745 mmHg 94%
03:00 +9°C° 0 mm 1 m/s 744 mmHg 95%
04:00 +9°C° 0 mm 1 m/s 744 mmHg 96%
05:00 +10°C° 0 mm 1 m/s 744 mmHg 92%
06:00 +11°C° 0 mm 1 m/s 744 mmHg 89%
07:00 +12°C° 0 mm 1 m/s 744 mmHg 86%
08:00 +13°C° 0 mm 2 m/s 744 mmHg 84%
09:00 +13°C° 0 mm 2 m/s 743 mmHg 81%
10:00 +14°C° 0 mm 2 m/s 743 mmHg 79%
11:00 +13°C° 0.4 mm 2 m/s 743 mmHg 82%
12:00 +13°C° 0.4 mm 2 m/s 743 mmHg 85%
13:00 +12°C° 0.4 mm 2 m/s 744 mmHg 88%
14:00 +12°C° 0.4 mm 2 m/s 743 mmHg 91%
15:00 +10°C° 0.4 mm 2 m/s 743 mmHg 93%
16:00 +10°C° 0.4 mm 2 m/s 743 mmHg 95%
17:00 +9°C° 0.4 mm 2 m/s 743 mmHg 95%
18:00 +9°C° 0.4 mm 2 m/s 743 mmHg 95%
19:00 +10°C° 0.4 mm 1 m/s 743 mmHg 96%
20:00 +10°C° 0.2 mm 1 m/s 743 mmHg 96%
21:00 +9°C° 0.2 mm 1 m/s 744 mmHg 96%
22:00 +9°C° 0.2 mm 1 m/s 744 mmHg 96%
23:00 +9°C° 0.1 mm 1 m/s 744 mmHg 96%

16 Mai, Dimanche

Heure Température Précipitation Vent Pression Humidité
00:00 +8°C° 0.1 mm 1 m/s 744 mmHg 97%
01:00 +8°C° 0.1 mm 1 m/s 744 mmHg 97%
02:00 +7°C° 0 mm 1 m/s 743 mmHg 97%
03:00 +7°C° 0 mm 1 m/s 743 mmHg 97%
04:00 +7°C° 0 mm 1 m/s 743 mmHg 97%
05:00 +8°C° 0 mm 1 m/s 743 mmHg 93%
06:00 +9°C° 0 mm 1 m/s 743 mmHg 88%
07:00 +10°C° 0 mm 2 m/s 744 mmHg 84%
08:00 +12°C° 0 mm 2 m/s 743 mmHg 78%
09:00 +13°C° 0 mm 2 m/s 743 mmHg 73%
10:00 +13°C° 0 mm 2 m/s 743 mmHg 68%
11:00 +14°C° 0.4 mm 2 m/s 743 mmHg 70%
12:00 +14°C° 0.4 mm 2 m/s 743 mmHg 73%
13:00 +15°C° 0.4 mm 2 m/s 743 mmHg 76%
14:00 +13°C° 0.9 mm 2 m/s 743 mmHg 82%
15:00 +12°C° 0.9 mm 2 m/s 743 mmHg 88%
16:00 +11°C° 0.9 mm 1 m/s 743 mmHg 94%
17:00 +11°C° 0.2 mm 1 m/s 743 mmHg 94%
18:00 +11°C° 0.2 mm 1 m/s 743 mmHg 93%
19:00 +11°C° 0.2 mm 1 m/s 743 mmHg 92%
20:00 +10°C° 0.1 mm 1 m/s 744 mmHg 94%
21:00 +9°C° 0.1 mm 1 m/s 744 mmHg 95%
22:00 +8°C° 0.1 mm 1 m/s 744 mmHg 96%
23:00 +8°C° 0 mm 1 m/s 744 mmHg 96%

17 Mai, Lundi

Heure Température Précipitation Vent Pression Humidité
00:00 +7°C° 0 mm 1 m/s 744 mmHg 96%
01:00 +7°C° 0 mm 1 m/s 744 mmHg 96%
02:00 +7°C° 0 mm 1 m/s 744 mmHg 97%
03:00 +7°C° 0 mm 1 m/s 744 mmHg 97%
04:00 +6°C° 0 mm 1 m/s 744 mmHg 97%
05:00 +8°C° 0 mm 1 m/s 745 mmHg 94%
06:00 +9°C° 0 mm 1 m/s 745 mmHg 90%
07:00 +11°C° 0 mm 1 m/s 745 mmHg 87%
08:00 +13°C° 0 mm 1 m/s 745 mmHg 78%
09:00 +14°C° 0 mm 1 m/s 745 mmHg 69%
10:00 +16°C° 0 mm 1 m/s 745 mmHg 59%
11:00 +16°C° 0.3 mm 1 m/s 745 mmHg 63%
12:00 +15°C° 0.3 mm 1 m/s 745 mmHg 67%
13:00 +15°C° 0.3 mm 1 m/s 745 mmHg 70%
14:00 +15°C° 0.6 mm 1 m/s 745 mmHg 75%
15:00 +14°C° 0.6 mm 1 m/s 745 mmHg 80%
16:00 +14°C° 0.6 mm 1 m/s 745 mmHg 85%
17:00 +13°C° 0.3 mm 1 m/s 745 mmHg 87%
18:00 +13°C° 0.3 mm 1 m/s 745 mmHg 89%
19:00 +13°C° 0.3 mm 1 m/s 745 mmHg 91%
20:00 +11°C° 0 mm 1 m/s 745 mmHg 93%
21:00 +10°C° 0 mm 1 m/s 745 mmHg 94%
22:00 +9°C° 0 mm 1 m/s 745 mmHg 96%
23:00 +9°C° 0 mm 1 m/s 745 mmHg 96%

18 Mai, Mardi

Heure Température Précipitation Vent Pression Humidité
00:00 +8°C° 0 mm 1 m/s 745 mmHg 96%
01:00 +8°C° 0 mm 1 m/s 745 mmHg 96%
02:00 +8°C° 0 mm 1 m/s 745 mmHg 96%
03:00 +7°C° 0 mm 1 m/s 745 mmHg 97%
04:00 +7°C° 0 mm 1 m/s 746 mmHg 97%
05:00 +9°C° 0 mm 1 m/s 746 mmHg 93%
06:00 +10°C° 0 mm 1 m/s 746 mmHg 90%
07:00 +12°C° 0 mm 1 m/s 746 mmHg 87%
08:00 +13°C° 0 mm 1 m/s 746 mmHg 78%
09:00 +15°C° 0 mm 2 m/s 746 mmHg 69%
10:00 +16°C° 0 mm 2 m/s 746 mmHg 60%
11:00 +16°C° 0.1 mm 2 m/s 746 mmHg 60%
12:00 +16°C° 0.1 mm 2 m/s 747 mmHg 59%
13:00 +16°C° 0.1 mm 3 m/s 747 mmHg 59%
14:00 +16°C° 0 mm 3 m/s 747 mmHg 59%
15:00 +16°C° 0 mm 3 m/s 747 mmHg 58%
16:00 +16°C° 0 mm 3 m/s 747 mmHg 58%
17:00 +14°C° 0 mm 3 m/s 747 mmHg 63%
18:00 +13°C° 0 mm 3 m/s 747 mmHg 69%
19:00 +12°C° 0 mm 3 m/s 747 mmHg 75%
20:00 +10°C° 0 mm 3 m/s 748 mmHg 81%
21:00 +9°C° 0 mm 3 m/s 748 mmHg 87%
22:00 +8°C° 0 mm 3 m/s 748 mmHg 93%
23:00 +8°C° 0 mm 3 m/s 748 mmHg 93%
Voir plus

Nous avons besoin de votre consentement

Meteoprog et ses fournisseurs de services peuvent stocker et accéder à des données personnelles telles que des cookies, des identifiants d'appareils ou d'autres technologies similaires sur votre appareil et traiter ces données pour personnaliser le contenu et les publicités, ainsi que pour fournir des fonctionnalités de médias sociaux et analyser le trafic.

  • Stocker et/ou accéder à des informations sur votre appareil

    Des cookies, des identifiants d'appareils ou d'autres informations peuvent être stockés ou accessibles sur votre appareil aux fins indiquées ci-dessus.

  • Annonces et contenus personnalisés, mesure des annonces et des contenus, connaissance de l'audience et développement de produits

    Les annonces et le contenu peuvent être personnalisés en fonction d'un profil. D'autres données peuvent être ajoutées pour mieux personnaliser les annonces et le contenu. Les performances des publicités et du contenu peuvent être mesurées. Il est possible d'obtenir des informations sur le public qui a vu les publicités et le contenu. Ces données peuvent être utilisées pour développer ou améliorer l'expérience de l'utilisateur, les systèmes et les logiciels.

En cliquant sur "J'accepte", vous autorisez l'utilisation de cookies, des identifiants d'appareils, des balises web ou d'autres technologies similaires. Vos paramètres peuvent être modifiés dans le navigateur de votre appareil.

Dans certains cas, des intérêts légitimes peuvent être invoqués plutôt qu'un consentement. Vous pouvez en savoir plus à ce sujet dans notre Politique de confidentialité et de cookies.